Time,TemperatureF,DewpointF,PressureIn,WindDirection,WindDirectionDegrees,WindSpeedMPH,WindSpeedGustMPH,Humidity,HourlyPrecipIn,Conditions,Clouds,dailyrainin,SolarRadiationWatts/m^2,SoftwareType,DateUTC
2013-09-23 00:00:00,54.8,44.8,29.98,South,189,0.0,0.0,69,0.00,,OVC048,0.00,0.00,VWS V14.01,2013-09-23 04:00:00,
2013-09-23 00:01:00,54.8,44.8,29.98,South,189,0.0,0.0,69,0.00,,BKN041,0.00,0.00,VWS V14.01,2013-09-23 04:01:00,
2013-09-23 00:02:00,54.8,44.8,29.98,South,189,0.0,0.0,69,0.00,,BKN041,0.00,0.00,VWS V14.01,2013-09-23 04:02:00,
2013-09-23 00:07:00,54.8,45.2,29.98,South,191,0.0,0.0,70,0.00,,BKN041,0.00,0.00,VWS V14.01,2013-09-23 04:07:00,
2013-09-23 00:12:00,54.8,44.8,29.98,South,179,0.0,0.0,69,0.00,,BKN041,0.00,0.00,VWS V14.01,2013-09-23 04:12:00,
2013-09-23 00:17:00,54.7,45.1,29.98,South,184,0.0,0.0,70,0.00,,BKN041,0.00,0.00,VWS V14.01,2013-09-23 04:17:00,
2013-09-23 00:22:00,54.7,45.1,29.98,SSW,213,0.0,0.0,70,0.00,,BKN041,0.00,0.00,VWS V14.01,2013-09-23 04:22:00,
2013-09-23 00:27:00,54.7,45.1,29.98,SSW,213,0.0,0.0,70,0.00,,BKN041,0.00,0.00,VWS V14.01,2013-09-23 04:27:00,
2013-09-23 00:32:00,54.5,44.5,29.98,SSW,212,0.0,0.0,69,0.00,,BKN041,0.00,0.00,VWS V14.01,2013-09-23 04:32:00,
2013-09-23 00:37:00,54.5,44.9,29.98,SSW,212,0.0,0.0,70,0.00,,BKN041,0.00,0.00,VWS V14.01,2013-09-23 04:37:00,
2013-09-23 00:42:00,54.5,44.9,29.98,SSW,208,0.0,0.0,70,0.00,,BKN041,0.00,0.00,VWS V14.01,2013-09-23 04:42:00,
2013-09-23 00:47:00,54.5,44.9,29.98,SSW,208,0.0,0.0,70,0.00,,BKN041,0.00,0.00,VWS V14.01,2013-09-23 04:47:00,
2013-09-23 00:52:00,54.5,44.9,29.98,SSW,199,0.0,0.0,70,0.00,,BKN041,0.00,0.00,VWS V14.01,2013-09-23 04:52:00,
2013-09-23 00:57:00,54.5,44.9,29.98,SSW,199,0.0,0.0,70,0.00,,BKN041,0.00,0.00,VWS V14.01,2013-09-23 04:57:00,
2013-09-23 01:02:00,54.4,44.8,29.99,SSW,198,0.0,0.0,70,0.00,,BKN046,0.00,0.00,VWS V14.01,2013-09-23 05:02:00,
2013-09-23 01:07:00,54.4,44.8,29.99,SSE,150,0.0,2.0,70,0.00,,BKN046,0.00,0.00,VWS V14.01,2013-09-23 05:07:00,
2013-09-23 01:12:00,54.5,44.9,29.99,SSE,158,0.0,0.0,70,0.00,,BKN046,0.00,0.00,VWS V14.01,2013-09-23 05:12:00,
2013-09-23 01:17:00,54.4,44.8,29.99,SSE,160,0.0,0.0,70,0.00,,BKN046,0.00,0.00,VWS V14.01,2013-09-23 05:17:00,
2013-09-23 01:22:00,54.4,44.8,29.99,South,176,0.0,0.0,70,0.00,,BKN046,0.00,0.00,VWS V14.01,2013-09-23 05:22:00,
2013-09-23 01:27:00,54.4,44.8,29.99,SSE,161,0.0,3.0,70,0.00,,BKN046,0.00,0.00,VWS V14.01,2013-09-23 05:27:00,
2013-09-23 01:32:00,54.4,44.8,29.99,SSE,162,0.0,0.0,70,0.00,,BKN046,0.00,0.00,VWS V14.01,2013-09-23 05:32:00,
2013-09-23 01:37:00,54.4,45.2,29.99,SSE,162,0.0,0.0,71,0.00,,BKN046,0.00,0.00,VWS V14.01,2013-09-23 05:37:00,
2013-09-23 01:42:00,54.4,45.2,29.99,SW,236,0.0,3.0,71,0.00,,BKN046,0.00,0.00,VWS V14.01,2013-09-23 05:42:00,
2013-09-23 01:47:00,54.4,45.2,29.99,SW,236,0.0,3.0,71,0.00,,BKN046,0.00,0.00,VWS V14.01,2013-09-23 05:47:00,
2013-09-23 01:52:00,54.4,45.2,29.99,SW,236,0.0,0.0,71,0.00,,BKN046,0.00,0.00,VWS V14.01,2013-09-23 05:52:00,
2013-09-23 01:57:00,54.4,45.6,29.99,SW,236,0.0,0.0,72,0.00,,BKN046,0.00,0.00,VWS V14.01,2013-09-23 05:57:00,
2013-09-23 02:02:00,54.2,45.4,30.00,SW,234,0.0,1.0,72,0.00,,OVC040,0.00,0.00,VWS V14.01,2013-09-23 06:02:00,
2013-09-23 02:07:00,54.2,45.0,30.00,WSW,257,0.0,1.0,71,0.00,,OVC040,0.00,0.00,VWS V14.01,2013-09-23 06:07:00,
2013-09-23 02:12:00,54.2,45.0,30.00,WSW,257,0.0,0.0,71,0.00,,OVC040,0.00,0.00,VWS V14.01,2013-09-23 06:12:00,
2013-09-23 02:17:00,54.1,44.5,30.00,South,186,0.0,2.0,70,0.00,,OVC040,0.00,0.00,VWS V14.01,2013-09-23 06:17:00,
2013-09-23 02:22:00,54.1,44.5,30.00,South,186,0.0,0.0,70,0.00,,OVC040,0.00,0.00,VWS V14.01,2013-09-23 06:22:00,
2013-09-23 02:27:00,54.1,44.5,30.00,SW,234,0.0,1.0,70,0.00,,OVC040,0.00,0.00,VWS V14.01,2013-09-23 06:27:00,
2013-09-23 02:32:00,54.1,44.2,30.00,SW,232,0.0,0.0,69,0.00,,OVC040,0.00,0.00,VWS V14.01,2013-09-23 06:32:00,
2013-09-23 02:37:00,54.1,44.2,30.00,SW,232,0.0,1.0,69,0.00,,OVC040,0.00,0.00,VWS V14.01,2013-09-23 06:37:00,
2013-09-23 02:42:00,54.1,44.2,30.00,SW,232,0.0,0.0,69,0.00,,OVC040,0.00,0.00,VWS V14.01,2013-09-23 06:42:00,
2013-09-23 02:47:00,54.1,44.2,30.00,SW,232,0.0,0.0,69,0.00,,OVC040,0.00,0.00,VWS V14.01,2013-09-23 06:47:00,
2013-09-23 02:52:00,54.1,44.2,30.00,West,261,0.0,1.0,69,0.00,,OVC040,0.00,0.00,VWS V14.01,2013-09-23 06:52:00,
2013-09-23 02:57:00,54.1,44.2,30.00,SW,233,0.0,1.0,69,0.00,,OVC040,0.00,0.00,VWS V14.01,2013-09-23 06:57:00,
2013-09-23 03:02:00,54.1,44.2,30.00,South,181,0.0,0.0,69,0.00,,OVC038,0.00,0.00,VWS V14.01,2013-09-23 07:02:00,
2013-09-23 03:07:00,54.1,44.2,30.00,South,181,0.0,0.0,69,0.00,,OVC038,0.00,0.00,VWS V14.01,2013-09-23 07:07:00,
2013-09-23 03:12:00,53.9,44.0,30.00,South,181,0.0,0.0,69,0.00,,OVC038,0.00,0.00,VWS V14.01,2013-09-23 07:12:00,
2013-09-23 03:17:00,53.9,44.0,30.00,South,175,0.0,1.0,69,0.00,,OVC038,0.00,0.00,VWS V14.01,2013-09-23 07:17:00,
2013-09-23 03:22:00,53.9,44.0,30.00,South,175,0.0,0.0,69,0.00,,OVC038,0.00,0.00,VWS V14.01,2013-09-23 07:22:00,
2013-09-23 03:27:00,53.9,44.0,30.00,SSE,157,0.0,2.0,69,0.00,,OVC038,0.00,0.00,VWS V14.01,2013-09-23 07:27:00,
2013-09-23 03:32:00,53.9,43.6,30.00,SSE,157,0.0,0.0,68,0.00,,OVC038,0.00,0.00,VWS V14.01,2013-09-23 07:32:00,
2013-09-23 03:37:00,53.9,43.6,30.00,SSE,158,0.0,2.0,68,0.00,,OVC038,0.00,0.00,VWS V14.01,2013-09-23 07:37:00,
2013-09-23 03:42:00,53.8,43.9,30.00,SSE,158,0.0,0.0,69,0.00,,OVC038,0.00,0.00,VWS V14.01,2013-09-23 07:42:00,
2013-09-23 03:47:00,53.8,44.3,30.00,SSE,158,0.0,0.0,70,0.00,,OVC038,0.00,0.00,VWS V14.01,2013-09-23 07:47:00,
2013-09-23 03:52:00,53.8,44.3,30.00,SSE,158,0.0,0.0,70,0.00,,OVC038,0.00,0.00,VWS V14.01,2013-09-23 07:52:00,
2013-09-23 03:57:00,53.6,44.1,30.00,SSE,158,0.0,0.0,70,0.00,,OVC038,0.00,0.00,VWS V14.01,2013-09-23 07:57:00,
2013-09-23 04:02:00,53.5,44.3,30.00,SSE,158,0.0,0.0,71,0.00,,OVC040,0.00,0.00,VWS V14.01,2013-09-23 08:02:00,
2013-09-23 04:07:00,53.5,44.3,30.00,SSE,158,0.0,0.0,71,0.00,,OVC040,0.00,0.00,VWS V14.01,2013-09-23 08:07:00,
2013-09-23 04:12:00,53.3,44.2,30.00,SSE,158,0.0,0.0,71,0.00,,OVC040,0.00,0.00,VWS V14.01,2013-09-23 08:12:00,
2013-09-23 04:17:00,53.3,44.5,30.00,SSE,158,0.0,0.0,72,0.00,,OVC040,0.00,0.00,VWS V14.01,2013-09-23 08:17:00,
2013-09-23 04:22:00,53.3,44.5,30.00,SSE,158,0.0,0.0,72,0.00,,OVC040,0.00,0.00,VWS V14.01,2013-09-23 08:22:00,
2013-09-23 04:27:00,53.2,44.4,30.00,SSE,158,0.0,0.0,72,0.00,,OVC040,0.00,0.00,VWS V14.01,2013-09-23 08:27:00,
2013-09-23 04:32:00,53.2,44.4,30.00,SSE,158,0.0,0.0,72,0.00,,OVC040,0.00,0.00,VWS V14.01,2013-09-23 08:32:00,
2013-09-23 04:37:00,53.2,44.8,30.00,SSE,158,0.0,0.0,73,0.00,,OVC040,0.00,0.00,VWS V14.01,2013-09-23 08:37:00,
2013-09-23 04:42:00,53.1,44.7,30.00,SSE,158,0.0,0.0,73,0.00,,OVC040,0.00,0.00,VWS V14.01,2013-09-23 08:42:00,
2013-09-23 04:47:00,53.1,45.0,30.00,SSE,158,0.0,0.0,74,0.00,,OVC040,0.00,0.00,VWS V14.01,2013-09-23 08:47:00,
2013-09-23 04:52:00,53.1,45.4,30.00,SSE,158,0.0,0.0,75,0.00,,OVC040,0.00,0.00,VWS V14.01,2013-09-23 08:52:00,
2013-09-23 04:57:00,52.9,45.2,30.00,SSE,158,0.0,0.0,75,0.00,,OVC040,0.00,0.00,VWS V14.01,2013-09-23 08:57:00,
2013-09-23 05:02:00,52.9,45.2,30.00,SSE,158,0.0,0.0,75,0.00,,BKN045,0.00,0.00,VWS V14.01,2013-09-23 09:02:00,
2013-09-23 05:07:00,52.9,45.2,30.00,SSE,158,0.0,0.0,75,0.00,,BKN045,0.00,0.00,VWS V14.01,2013-09-23 09:07:00,
2013-09-23 05:12:00,52.9,45.5,30.00,SSE,158,0.0,0.0,76,0.00,,BKN045,0.00,0.00,VWS V14.01,2013-09-23 09:12:00,
2013-09-23 05:17:00,52.9,45.5,30.01,SSE,158,0.0,0.0,76,0.00,,BKN045,0.00,0.00,VWS V14.01,2013-09-23 09:17:00,
2013-09-23 05:22:00,52.9,45.5,30.01,SSE,158,0.0,0.0,76,0.00,,BKN045,0.00,0.00,VWS V14.01,2013-09-23 09:22:00,
2013-09-23 05:27:00,52.8,45.8,30.01,SSE,158,0.0,0.0,77,0.00,,BKN045,0.00,0.00,VWS V14.01,2013-09-23 09:27:00,
2013-09-23 05:32:00,52.8,45.5,30.00,SSE,158,0.0,0.0,76,0.00,,BKN045,0.00,0.00,VWS V14.01,2013-09-23 09:32:00,
2013-09-23 05:37:00,52.8,45.5,30.00,SSE,158,0.0,0.0,76,0.00,,BKN045,0.00,0.00,VWS V14.01,2013-09-23 09:37:00,
2013-09-23 05:42:00,52.8,45.5,30.00,SSE,158,0.0,0.0,76,0.00,,BKN045,0.00,0.00,VWS V14.01,2013-09-23 09:42:00,
2013-09-23 05:47:00,52.6,45.3,30.00,SSE,158,0.0,0.0,76,0.00,,BKN045,0.00,0.00,VWS V14.01,2013-09-23 09:47:00,
2013-09-23 05:52:00,52.6,45.3,30.00,SSE,158,0.0,0.0,76,0.00,,BKN045,0.00,0.00,VWS V14.01,2013-09-23 09:52:00,
2013-09-23 05:57:00,52.6,45.6,30.00,SSE,158,0.0,0.0,77,0.00,,BKN045,0.00,0.00,VWS V14.01,2013-09-23 09:57:00,
2013-09-23 06:02:00,52.6,45.6,30.01,SSE,158,0.0,0.0,77,0.00,,BKN042,0.00,0.00,VWS V14.01,2013-09-23 10:02:00,
2013-09-23 06:07:00,52.6,45.3,30.01,SSE,158,0.0,0.0,76,0.00,,BKN042,0.00,0.00,VWS V14.01,2013-09-23 10:07:00,
2013-09-23 06:12:00,52.5,45.2,30.01,SSE,158,0.0,0.0,76,0.00,,BKN042,0.00,0.00,VWS V14.01,2013-09-23 10:12:00,
2013-09-23 06:17:00,52.5,45.2,30.01,SSE,158,0.0,0.0,76,0.00,,BKN042,0.00,0.00,VWS V14.01,2013-09-23 10:17:00,
2013-09-23 06:22:00,52.3,45.0,30.01,SSE,158,0.0,0.0,76,0.00,,BKN042,0.00,0.00,VWS V14.01,2013-09-23 10:22:00,
2013-09-23 06:27:00,52.2,45.2,30.01,SSE,158,0.0,0.0,77,0.00,,BKN042,0.00,0.00,VWS V14.01,2013-09-23 10:27:00,
2013-09-23 06:32:00,52.0,45.0,30.02,SSE,158,0.0,0.0,77,0.00,,BKN042,0.00,0.00,VWS V14.01,2013-09-23 10:32:00,
2013-09-23 06:37:00,51.9,45.3,30.02,SSE,158,0.0,0.0,78,0.00,,BKN042,0.00,0.00,VWS V14.01,2013-09-23 10:37:00,
2013-09-23 06:42:00,51.6,45.3,30.02,SSE,158,0.0,0.0,79,0.00,,BKN042,0.00,0.00,VWS V14.01,2013-09-23 10:42:00,
2013-09-23 06:47:00,51.4,45.1,30.02,SSE,158,0.0,0.0,79,0.00,,BKN042,0.00,0.00,VWS V14.01,2013-09-23 10:47:00,
2013-09-23 06:52:00,51.3,45.3,30.02,SSE,158,0.0,0.0,80,0.00,,BKN042,0.00,0.00,VWS V14.01,2013-09-23 10:52:00,
2013-09-23 06:57:00,51.1,45.2,30.02,SSE,158,0.0,0.0,80,0.00,,BKN042,0.00,0.00,VWS V14.01,2013-09-23 10:57:00,
2013-09-23 07:02:00,51.0,45.1,30.03,SSE,158,0.0,0.0,80,0.00,,BKN041,0.00,0.00,VWS V14.01,2013-09-23 11:02:00,
2013-09-23 07:07:00,50.8,44.9,30.03,SSE,158,0.0,0.0,80,0.00,,BKN041,0.00,0.00,VWS V14.01,2013-09-23 11:07:00,
2013-09-23 07:12:00,51.0,45.7,30.03,SSE,158,0.0,0.0,82,0.00,,BKN041,0.00,0.00,VWS V14.01,2013-09-23 11:12:00,
2013-09-23 07:17:00,51.0,46.0,30.04,SSE,158,0.0,0.0,83,0.00,,BKN041,0.00,0.00,VWS V14.01,2013-09-23 11:17:00,
2013-09-23 07:22:00,51.1,46.4,30.04,SSE,158,0.0,0.0,84,0.00,,BKN041,0.00,0.00,VWS V14.01,2013-09-23 11:22:00,
2013-09-23 07:27:00,51.1,46.4,30.04,SSE,158,0.0,0.0,84,0.00,,BKN041,0.00,0.00,VWS V14.01,2013-09-23 11:27:00,
2013-09-23 07:32:00,51.0,46.3,30.04,SSE,158,0.0,0.0,84,0.00,,BKN041,0.00,5.00,VWS V14.01,2013-09-23 11:32:00,
2013-09-23 07:37:00,51.1,46.4,30.04,SSE,158,0.0,0.0,84,0.00,,BKN041,0.00,9.00,VWS V14.01,2013-09-23 11:37:00,
2013-09-23 07:42:00,51.1,46.4,30.04,SSE,158,0.0,0.0,84,0.00,,BKN041,0.00,9.00,VWS V14.01,2013-09-23 11:42:00,
2013-09-23 07:47:00,51.1,46.8,30.05,SSE,158,0.0,0.0,85,0.00,,BKN041,0.00,12.00,VWS V14.01,2013-09-23 11:47:00,
2013-09-23 07:52:00,51.3,47.0,30.05,SE,124,0.0,3.0,85,0.00,,BKN041,0.00,16.00,VWS V14.01,2013-09-23 11:52:00,
2013-09-23 07:57:00,51.3,46.3,30.05,SE,143,0.0,6.0,83,0.00,,BKN041,0.00,21.00,VWS V14.01,2013-09-23 11:57:00,
2013-09-23 08:02:00,51.4,45.8,30.05,SE,144,0.0,1.0,81,0.00,,BKN040,0.00,21.00,VWS V14.01,2013-09-23 12:02:00,
2013-09-23 08:07:00,51.6,45.6,30.05,SE,144,0.0,1.0,80,0.00,,BKN040,0.00,25.00,VWS V14.01,2013-09-23 12:07:00,
2013-09-23 08:12:00,51.9,45.9,30.05,SE,143,0.0,1.0,80,0.00,,BKN040,0.00,39.00,VWS V14.01,2013-09-23 12:12:00,
2013-09-23 08:17:00,52.0,45.4,30.05,SE,133,1.0,3.0,78,0.00,,BKN040,0.00,44.00,VWS V14.01,2013-09-23 12:17:00,
2013-09-23 08:23:00,52.3,45.0,30.05,SE,127,0.0,1.0,76,0.00,,BKN040,0.00,39.00,VWS V14.01,2013-09-23 12:23:00,
2013-09-23 08:28:00,52.6,44.9,30.05,SE,144,0.0,5.0,75,0.00,,BKN040,0.00,37.00,VWS V14.01,2013-09-23 12:28:00,
2013-09-23 08:33:00,52.8,44.8,30.06,SE,126,0.0,2.0,74,0.00,,BKN040,0.00,35.00,VWS V14.01,2013-09-23 12:33:00,
2013-09-23 08:38:00,53.1,44.7,30.06,East,88,0.0,3.0,73,0.00,,BKN040,0.00,35.00,VWS V14.01,2013-09-23 12:38:00,
2013-09-23 08:43:00,53.2,45.1,30.06,East,88,0.0,0.0,74,0.00,,BKN040,0.00,33.00,VWS V14.01,2013-09-23 12:43:00,
2013-09-23 08:48:00,53.2,44.8,30.06,SSE,150,0.0,0.0,73,0.00,,BKN040,0.00,35.00,VWS V14.01,2013-09-23 12:48:00,
2013-09-23 08:53:00,53.2,44.4,30.06,SE,136,0.0,3.0,72,0.00,,BKN040,0.00,37.00,VWS V14.01,2013-09-23 12:53:00,
2013-09-23 08:58:00,53.3,44.5,30.06,SE,136,0.0,3.0,72,0.00,,BKN040,0.00,44.00,VWS V14.01,2013-09-23 12:58:00,
2013-09-23 09:03:00,53.3,44.2,30.07,SSE,162,1.0,3.0,71,0.00,,OVC041,0.00,49.00,VWS V14.01,2013-09-23 13:03:00,
2013-09-23 09:08:00,53.5,44.3,30.07,SE,144,0.0,3.0,71,0.00,,OVC041,0.00,46.00,VWS V14.01,2013-09-23 13:08:00,
2013-09-23 09:13:00,53.5,44.3,30.07,SSE,150,0.0,2.0,71,0.00,,OVC041,0.00,49.00,VWS V14.01,2013-09-23 13:13:00,
2013-09-23 09:18:00,53.6,44.1,30.07,ENE,76,0.0,5.0,70,0.00,,OVC041,0.00,49.00,VWS V14.01,2013-09-23 13:18:00,
2013-09-23 09:23:00,53.6,44.1,30.07,ESE,107,0.0,0.0,70,0.00,,OVC041,0.00,46.00,VWS V14.01,2013-09-23 13:23:00,
2013-09-23 09:28:00,53.8,44.6,30.07,SE,137,2.0,2.0,71,0.00,,OVC041,0.00,55.00,VWS V14.01,2013-09-23 13:28:00,
2013-09-23 09:33:00,53.8,44.6,30.07,SE,134,0.0,0.0,71,0.00,,OVC041,0.00,69.00,VWS V14.01,2013-09-23 13:33:00,
2013-09-23 09:38:00,53.9,44.7,30.07,SE,134,0.0,1.0,71,0.00,,OVC041,0.00,72.00,VWS V14.01,2013-09-23 13:38:00,
2013-09-23 09:43:00,54.1,44.5,30.07,SE,145,1.0,1.0,70,0.00,,OVC041,0.00,63.00,VWS V14.01,2013-09-23 13:43:00,
2013-09-23 09:48:00,54.1,44.5,30.07,SE,136,0.0,4.0,70,0.00,,OVC041,0.00,77.00,VWS V14.01,2013-09-23 13:48:00,
2013-09-23 09:53:00,54.2,44.6,30.07,SE,143,0.0,2.0,70,0.00,,OVC041,0.00,106.00,VWS V14.01,2013-09-23 13:53:00,
2013-09-23 09:57:00,54.4,44.8,30.07,SE,143,0.0,2.0,70,0.00,,OVC041,0.00,104.00,VWS V14.01,2013-09-23 13:57:00,
2013-09-23 10:02:00,54.5,44.9,30.08,SE,137,0.0,0.0,70,0.00,,OVC041,0.00,86.00,VWS V14.01,2013-09-23 14:02:00,
2013-09-23 10:07:00,54.7,44.7,30.08,SE,136,0.0,2.0,69,0.00,,OVC041,0.00,86.00,VWS V14.01,2013-09-23 14:07:00,
2013-09-23 10:12:00,54.7,44.7,30.08,SSE,158,0.0,0.0,69,0.00,,OVC041,0.00,86.00,VWS V14.01,2013-09-23 14:12:00,
2013-09-23 10:17:00,54.8,44.8,30.09,SSE,154,0.0,2.0,69,0.00,,OVC041,0.00,91.00,VWS V14.01,2013-09-23 14:17:00,
2013-09-23 10:22:00,55.0,45.4,30.09,SSE,154,0.0,0.0,70,0.00,,OVC041,0.00,102.00,VWS V14.01,2013-09-23 14:22:00,
2013-09-23 10:27:00,55.1,44.7,30.09,SSE,152,0.0,1.0,68,0.00,,OVC041,0.00,109.00,VWS V14.01,2013-09-23 14:27:00,
2013-09-23 10:32:00,55.3,44.9,30.09,SSE,147,2.0,3.0,68,0.00,,OVC041,0.00,107.00,VWS V14.01,2013-09-23 14:32:00,
2013-09-23 10:37:00,55.4,45.0,30.09,SE,140,0.0,3.0,68,0.00,,OVC041,0.00,107.00,VWS V14.01,2013-09-23 14:37:00,
2013-09-23 10:42:00,55.4,44.6,30.09,SE,138,0.0,1.0,67,0.00,,OVC041,0.00,109.00,VWS V14.01,2013-09-23 14:42:00,
2013-09-23 10:47:00,55.6,44.8,30.09,SE,138,0.0,1.0,67,0.00,,OVC041,0.00,127.00,VWS V14.01,2013-09-23 14:47:00,
2013-09-23 10:52:00,55.7,45.3,30.09,SE,137,0.0,0.0,68,0.00,,OVC041,0.00,127.00,VWS V14.01,2013-09-23 14:52:00,
2013-09-23 10:57:00,55.9,44.7,30.09,SE,131,0.0,0.0,66,0.00,,OVC041,0.00,132.00,VWS V14.01,2013-09-23 14:57:00,
2013-09-23 11:03:00,56.0,44.8,30.09,ESE,121,0.0,3.0,66,0.00,,OVC035,0.00,144.00,VWS V14.01,2013-09-23 15:03:00,
2013-09-23 11:08:00,56.0,44.8,30.09,ESE,121,0.0,3.0,66,0.00,,OVC035,0.00,158.00,VWS V14.01,2013-09-23 15:08:00,
2013-09-23 11:13:00,56.3,45.1,30.09,SE,130,0.0,0.0,66,0.00,,OVC035,0.00,160.00,VWS V14.01,2013-09-23 15:13:00,
2013-09-23 11:18:00,56.5,45.3,30.10,SE,130,0.0,1.0,66,0.00,,OVC035,0.00,167.00,VWS V14.01,2013-09-23 15:18:00,
2013-09-23 11:23:00,56.6,44.6,30.10,SSE,157,0.0,3.0,64,0.00,,OVC035,0.00,158.00,VWS V14.01,2013-09-23 15:23:00,
2013-09-23 11:28:00,56.7,44.7,30.10,SSE,154,1.0,3.0,64,0.00,,OVC035,0.00,137.00,VWS V14.01,2013-09-23 15:28:00,
2013-09-23 11:33:00,56.7,44.7,30.09,SSE,152,0.0,2.0,64,0.00,,OVC035,0.00,125.00,VWS V14.01,2013-09-23 15:33:00,
2013-09-23 11:38:00,56.9,44.9,30.09,SE,145,0.0,3.0,64,0.00,,OVC035,0.00,118.00,VWS V14.01,2013-09-23 15:38:00,
2013-09-23 11:43:00,56.9,44.9,30.09,SE,145,1.0,1.0,64,0.00,,OVC035,0.00,123.00,VWS V14.01,2013-09-23 15:43:00,
2013-09-23 11:48:00,57.0,45.0,30.10,South,175,0.0,2.0,64,0.00,,OVC035,0.00,125.00,VWS V14.01,2013-09-23 15:48:00,
2013-09-23 11:53:00,57.0,45.0,30.10,SSE,167,0.0,0.0,64,0.00,,OVC035,0.00,132.00,VWS V14.01,2013-09-23 15:53:00,
2013-09-23 11:58:00,57.0,45.0,30.10,SSE,167,0.0,1.0,64,0.00,,OVC035,0.00,151.00,VWS V14.01,2013-09-23 15:58:00,
2013-09-23 12:03:00,57.2,45.2,30.10,SSE,168,0.0,0.0,64,0.00,,OVC036,0.00,146.00,VWS V14.01,2013-09-23 16:03:00,
2013-09-23 12:08:00,57.3,45.7,30.10,SSE,168,0.0,0.0,65,0.00,,OVC036,0.00,141.00,VWS V14.01,2013-09-23 16:08:00,
2013-09-23 12:13:00,57.5,45.4,30.10,SE,141,0.0,2.0,64,0.00,,OVC036,0.00,157.00,VWS V14.01,2013-09-23 16:13:00,
2013-09-23 12:18:00,57.5,44.6,30.10,SE,144,0.0,2.0,62,0.00,,OVC036,0.00,179.00,VWS V14.01,2013-09-23 16:18:00,
2013-09-23 12:23:00,57.6,44.7,30.10,SE,136,0.0,0.0,62,0.00,,OVC036,0.00,194.00,VWS V14.01,2013-09-23 16:23:00,
2013-09-23 12:28:00,57.6,44.7,30.10,SSE,151,0.0,3.0,62,0.00,,OVC036,0.00,197.00,VWS V14.01,2013-09-23 16:28:00,
2013-09-23 12:33:00,58.0,45.1,30.10,SSE,150,0.0,0.0,62,0.00,,OVC036,0.00,197.00,VWS V14.01,2013-09-23 16:33:00,
2013-09-23 12:38:00,58.1,44.7,30.10,SSE,150,0.0,0.0,61,0.00,,OVC036,0.00,199.00,VWS V14.01,2013-09-23 16:38:00,
2013-09-23 12:43:00,58.3,44.9,30.10,SSE,150,0.0,0.0,61,0.00,,OVC036,0.00,199.00,VWS V14.01,2013-09-23 16:43:00,
2013-09-23 12:48:00,58.4,45.0,30.09,SSE,148,1.0,1.0,61,0.00,,OVC036,0.00,192.00,VWS V14.01,2013-09-23 16:48:00,
2013-09-23 12:53:00,58.4,45.5,30.09,SSE,148,0.0,0.0,62,0.00,,OVC036,0.00,225.00,VWS V14.01,2013-09-23 16:53:00,
2013-09-23 12:58:00,58.9,46.8,30.09,SSE,148,0.0,0.0,64,0.00,,OVC036,0.00,262.00,VWS V14.01,2013-09-23 16:58:00,
2013-09-23 13:03:00,59.0,45.2,30.09,SSW,212,0.0,1.0,60,0.00,,OVC035,0.00,269.00,VWS V14.01,2013-09-23 17:03:00,
2013-09-23 13:08:00,58.9,44.6,30.09,SW,216,0.0,2.0,59,0.00,,OVC035,0.00,253.00,VWS V14.01,2013-09-23 17:08:00,
2013-09-23 13:13:00,59.0,45.2,30.09,SW,216,0.0,0.0,60,0.00,,OVC035,0.00,262.00,VWS V14.01,2013-09-23 17:13:00,
2013-09-23 13:18:00,59.2,44.9,30.09,SSW,212,0.0,0.0,59,0.00,,OVC035,0.00,232.00,VWS V14.01,2013-09-23 17:18:00,
2013-09-23 13:23:00,59.5,44.7,30.09,SSE,152,0.0,1.0,58,0.00,,OVC035,0.00,264.00,VWS V14.01,2013-09-23 17:23:00,
2013-09-23 13:27:00,59.6,44.8,30.09,SSE,152,1.0,1.0,58,0.00,,OVC035,0.00,285.00,VWS V14.01,2013-09-23 17:27:00,
2013-09-23 13:32:00,59.9,45.5,30.08,SSE,152,0.0,0.0,59,0.00,,OVC035,0.00,266.00,VWS V14.01,2013-09-23 17:32:00,
2013-09-23 13:37:00,59.9,44.7,30.08,SSW,195,0.0,1.0,57,0.00,,OVC035,0.00,241.00,VWS V14.01,2013-09-23 17:37:00,
2013-09-23 13:42:00,60.1,45.7,30.08,SSW,195,0.0,0.0,59,0.00,,OVC035,0.00,255.00,VWS V14.01,2013-09-23 17:42:00,
2013-09-23 13:47:00,60.2,45.4,30.08,SSW,195,0.0,0.0,58,0.00,,OVC035,0.00,213.00,VWS V14.01,2013-09-23 17:47:00,
2013-09-23 13:52:00,60.2,44.5,30.08,SSW,195,0.0,0.0,56,0.00,,OVC035,0.00,222.00,VWS V14.01,2013-09-23 17:52:00,
2013-09-23 13:57:00,60.5,46.6,30.08,SSW,195,0.0,0.0,60,0.00,,OVC035,0.00,276.00,VWS V14.01,2013-09-23 17:57:00,
2013-09-23 14:02:00,60.7,46.3,30.07,SW,232,0.0,1.0,59,0.00,,OVC037,0.00,290.00,VWS V14.01,2013-09-23 18:02:00,
2013-09-23 14:07:00,60.9,45.1,30.07,SSE,155,0.0,2.0,56,0.00,,OVC037,0.00,269.00,VWS V14.01,2013-09-23 18:07:00,
2013-09-23 14:12:00,61.0,46.1,30.07,SSE,168,0.0,1.0,58,0.00,,OVC037,0.00,253.00,VWS V14.01,2013-09-23 18:12:00,
2013-09-23 14:17:00,60.7,45.8,30.07,West,277,0.0,3.0,58,0.00,,OVC037,0.00,250.00,VWS V14.01,2013-09-23 18:17:00,
2013-09-23 14:22:00,60.4,45.6,30.07,West,265,0.0,2.0,58,0.00,,OVC037,0.00,243.00,VWS V14.01,2013-09-23 18:22:00,
2013-09-23 14:27:00,60.4,46.5,30.07,West,272,0.0,2.0,60,0.00,,OVC037,0.00,211.00,VWS V14.01,2013-09-23 18:27:00,
2013-09-23 14:32:00,60.7,46.8,30.07,West,267,0.0,1.0,60,0.00,,OVC037,0.00,218.00,VWS V14.01,2013-09-23 18:32:00,
2013-09-23 14:37:00,60.9,46.9,30.07,West,267,0.0,1.0,60,0.00,,OVC037,0.00,236.00,VWS V14.01,2013-09-23 18:37:00,
2013-09-23 14:42:00,60.9,46.0,30.07,WSW,241,0.0,2.0,58,0.00,,OVC037,0.00,239.00,VWS V14.01,2013-09-23 18:42:00,
2013-09-23 14:47:00,60.9,46.9,30.07,South,176,1.0,3.0,60,0.00,,OVC037,0.00,241.00,VWS V14.01,2013-09-23 18:47:00,
2013-09-23 14:52:00,60.7,46.8,30.07,SSW,193,0.0,1.0,60,0.00,,OVC037,0.00,241.00,VWS V14.01,2013-09-23 18:52:00,
2013-09-23 14:57:00,60.9,46.9,30.07,SSW,193,0.0,1.0,60,0.00,,OVC037,0.00,232.00,VWS V14.01,2013-09-23 18:57:00,
2013-09-23 15:02:00,61.2,46.8,30.07,SSW,193,0.0,0.0,59,0.00,,OVC040,0.00,243.00,VWS V14.01,2013-09-23 19:02:00,
2013-09-23 15:07:00,61.2,46.8,30.07,SSW,209,0.0,0.0,59,0.00,,OVC040,0.00,238.00,VWS V14.01,2013-09-23 19:07:00,
2013-09-23 15:12:00,60.7,46.3,30.07,West,265,0.0,0.0,59,0.00,,OVC040,0.00,243.00,VWS V14.01,2013-09-23 19:12:00,
2013-09-23 15:17:00,60.4,46.5,30.07,SW,236,1.0,1.0,60,0.00,,OVC040,0.00,245.00,VWS V14.01,2013-09-23 19:17:00,
2013-09-23 15:22:00,60.4,46.0,30.07,WSW,240,0.0,1.0,59,0.00,,OVC040,0.00,274.00,VWS V14.01,2013-09-23 19:22:00,
2013-09-23 15:27:00,59.9,46.0,30.07,West,268,0.0,3.0,60,0.00,,OVC040,0.00,271.00,VWS V14.01,2013-09-23 19:27:00,
2013-09-23 15:32:00,60.2,46.3,30.07,SSE,155,1.0,3.0,60,0.00,,OVC040,0.00,267.00,VWS V14.01,2013-09-23 19:32:00,
2013-09-23 15:37:00,60.4,45.6,30.07,SSE,154,1.0,3.0,58,0.00,,OVC040,0.00,260.00,VWS V14.01,2013-09-23 19:37:00,
2013-09-23 15:42:00,60.5,44.7,30.07,ESE,109,0.0,0.0,56,0.00,,OVC040,0.00,243.00,VWS V14.01,2013-09-23 19:42:00,
2013-09-23 15:47:00,60.9,46.5,30.07,ESE,109,0.0,0.0,59,0.00,,OVC040,0.00,241.00,VWS V14.01,2013-09-23 19:47:00,
2013-09-23 15:52:00,61.2,46.3,30.07,ESE,106,0.0,0.0,58,0.00,,OVC040,0.00,229.00,VWS V14.01,2013-09-23 19:52:00,
2013-09-23 15:57:00,61.3,46.4,30.07,ESE,106,0.0,0.0,58,0.00,,OVC040,0.00,232.00,VWS V14.01,2013-09-23 19:57:00,
2013-09-23 16:02:00,61.5,46.1,30.06,ESE,117,0.0,2.0,57,0.00,,OVC036,0.00,252.00,VWS V14.01,2013-09-23 20:02:00,
2013-09-23 16:07:00,61.6,45.8,30.06,SE,136,1.0,2.0,56,0.00,,OVC036,0.00,308.00,VWS V14.01,2013-09-23 20:07:00,
2013-09-23 16:12:00,61.8,45.5,30.06,SSE,168,0.0,2.0,55,0.00,,OVC036,0.00,350.00,VWS V14.01,2013-09-23 20:12:00,
2013-09-23 16:17:00,62.0,46.1,30.06,SSE,155,0.0,2.0,56,0.00,,OVC036,0.00,194.00,VWS V14.01,2013-09-23 20:17:00,
2013-09-23 16:22:00,62.0,45.7,30.06,SSE,152,0.0,0.0,55,0.00,,OVC036,0.00,144.00,VWS V14.01,2013-09-23 20:22:00,
2013-09-23 16:27:00,61.8,46.0,30.06,SSE,158,0.0,2.0,56,0.00,,OVC036,0.00,151.00,VWS V14.01,2013-09-23 20:27:00,
2013-09-23 16:32:00,61.5,46.1,30.06,SSE,160,0.0,0.0,57,0.00,,OVC036,0.00,165.00,VWS V14.01,2013-09-23 20:32:00,
2013-09-23 16:37:00,61.5,46.1,30.06,ESE,117,0.0,3.0,57,0.00,,OVC036,0.00,150.00,VWS V14.01,2013-09-23 20:37:00,
2013-09-23 16:42:00,61.6,46.2,30.06,SE,145,0.0,0.0,57,0.00,,OVC036,0.00,125.00,VWS V14.01,2013-09-23 20:42:00,
2013-09-23 16:47:00,61.6,45.3,30.06,SSW,199,0.0,0.0,55,0.00,,OVC036,0.00,79.00,VWS V14.01,2013-09-23 20:47:00,
2013-09-23 16:52:00,61.5,45.2,30.06,SSW,192,0.0,0.0,55,0.00,,OVC036,0.00,84.00,VWS V14.01,2013-09-23 20:52:00,
2013-09-23 16:57:00,61.3,45.0,30.06,South,178,1.0,1.0,55,0.00,,OVC036,0.00,72.00,VWS V14.01,2013-09-23 20:57:00,
2013-09-23 17:02:00,61.0,45.2,30.06,SSE,165,0.0,0.0,56,0.00,,OVC041,0.00,77.00,VWS V14.01,2013-09-23 21:02:00,
2013-09-23 17:07:00,60.9,45.1,30.06,SSE,165,0.0,1.0,56,0.00,,OVC041,0.00,113.00,VWS V14.01,2013-09-23 21:07:00,
2013-09-23 17:12:00,60.7,44.9,30.06,SE,138,1.0,3.0,56,0.00,,OVC041,0.00,139.00,VWS V14.01,2013-09-23 21:12:00,
2013-09-23 17:17:00,60.5,44.7,30.06,WSW,244,0.0,3.0,56,0.00,,OVC041,0.00,111.00,VWS V14.01,2013-09-23 21:17:00,
2013-09-23 17:22:00,60.4,45.1,30.06,SW,222,0.0,1.0,57,0.00,,OVC041,0.00,95.00,VWS V14.01,2013-09-23 21:22:00,
2013-09-23 17:27:00,60.2,44.9,30.06,East,92,0.0,1.0,57,0.00,,OVC041,0.00,95.00,VWS V14.01,2013-09-23 21:27:00,
2013-09-23 17:32:00,60.1,45.7,30.07,East,93,0.0,1.0,59,0.00,,OVC041,0.00,91.00,VWS V14.01,2013-09-23 21:32:00,
2013-09-23 17:37:00,59.8,45.5,30.07,SE,126,0.0,1.0,59,0.00,,OVC041,0.00,72.00,VWS V14.01,2013-09-23 21:37:00,
2013-09-23 17:42:00,59.6,45.7,30.07,SE,130,0.0,1.0,60,0.00,,OVC041,0.00,51.00,VWS V14.01,2013-09-23 21:42:00,
2013-09-23 17:47:00,59.3,45.0,30.07,WNW,289,0.0,2.0,59,0.00,,OVC041,0.00,51.00,VWS V14.01,2013-09-23 21:47:00,
2013-09-23 17:52:00,59.0,44.7,30.07,SE,130,0.0,0.0,59,0.00,,OVC041,0.00,49.00,VWS V14.01,2013-09-23 21:52:00,
2013-09-23 17:57:00,58.7,44.4,30.07,SE,131,0.0,0.0,59,0.00,,OVC041,0.00,44.00,VWS V14.01,2013-09-23 21:57:00,
2013-09-23 18:02:00,58.6,44.3,30.07,South,172,0.0,0.0,59,0.00,,BKN040,0.00,33.00,VWS V14.01,2013-09-23 22:02:00,
2013-09-23 18:07:00,58.4,44.6,30.07,SSW,200,0.0,1.0,60,0.00,,BKN040,0.00,37.00,VWS V14.01,2013-09-23 22:07:00,
2013-09-23 18:12:00,58.3,44.5,30.07,East,92,0.0,0.0,60,0.00,,BKN040,0.00,35.00,VWS V14.01,2013-09-23 22:12:00,
2013-09-23 18:17:00,58.1,44.7,30.07,East,96,0.0,0.0,61,0.00,,BKN040,0.00,33.00,VWS V14.01,2013-09-23 22:17:00,
2013-09-23 18:22:00,57.8,44.5,30.07,SSE,161,0.0,2.0,61,0.00,,BKN040,0.00,26.00,VWS V14.01,2013-09-23 22:22:00,
2013-09-23 18:27:00,57.6,44.7,30.07,ESE,109,0.0,2.0,62,0.00,,BKN040,0.00,25.00,VWS V14.01,2013-09-23 22:27:00,
2013-09-23 18:32:00,57.3,44.4,30.07,South,186,0.0,2.0,62,0.00,,BKN040,0.00,23.00,VWS V14.01,2013-09-23 22:32:00,
2013-09-23 18:37:00,57.2,44.3,30.07,South,186,0.0,2.0,62,0.00,,BKN040,0.00,19.00,VWS V14.01,2013-09-23 22:37:00,
2013-09-23 18:42:00,57.0,44.1,30.07,South,186,0.0,0.0,62,0.00,,BKN040,0.00,18.00,VWS V14.01,2013-09-23 22:42:00,
2013-09-23 18:47:00,56.7,43.8,30.07,South,186,0.0,0.0,62,0.00,,BKN040,0.00,14.00,VWS V14.01,2013-09-23 22:47:00,
2013-09-23 18:52:00,56.6,44.2,30.07,South,186,0.0,0.0,63,0.00,,BKN040,0.00,12.00,VWS V14.01,2013-09-23 22:52:00,
2013-09-23 18:57:00,56.3,44.3,30.07,South,186,0.0,1.0,64,0.00,,BKN040,0.00,12.00,VWS V14.01,2013-09-23 22:57:00,
2013-09-23 19:02:00,56.2,44.2,30.07,South,186,0.0,0.0,64,0.00,,BKN039,0.00,11.00,VWS V14.01,2013-09-23 23:02:00,
2013-09-23 19:07:00,55.9,44.3,30.07,South,186,0.0,0.0,65,0.00,,BKN039,0.00,9.00,VWS V14.01,2013-09-23 23:07:00,
2013-09-23 19:13:00,55.6,44.4,30.07,South,186,0.0,0.0,66,0.00,,BKN039,0.00,0.00,VWS V14.01,2013-09-23 23:13:00,
2013-09-23 19:18:00,55.1,44.3,30.07,South,186,0.0,0.0,67,0.00,,BKN039,0.00,0.00,VWS V14.01,2013-09-23 23:18:00,
2013-09-23 19:23:00,54.8,44.5,30.07,South,186,0.0,0.0,68,0.00,,BKN039,0.00,0.00,VWS V14.01,2013-09-23 23:23:00,
2013-09-23 19:28:00,54.4,44.1,30.07,South,186,0.0,0.0,68,0.00,,BKN039,0.00,0.00,VWS V14.01,2013-09-23 23:28:00,
2013-09-23 19:33:00,54.1,44.2,30.07,South,186,0.0,0.0,69,0.00,,BKN039,0.00,0.00,VWS V14.01,2013-09-23 23:33:00,
2013-09-23 19:38:00,53.6,43.7,30.07,South,186,0.0,0.0,69,0.00,,BKN039,0.00,0.00,VWS V14.01,2013-09-23 23:38:00,
2013-09-23 19:43:00,53.3,44.2,30.07,South,186,0.0,0.0,71,0.00,,BKN039,0.00,0.00,VWS V14.01,2013-09-23 23:43:00,
2013-09-23 19:48:00,53.1,44.3,30.07,South,186,0.0,0.0,72,0.00,,BKN039,0.00,0.00,VWS V14.01,2013-09-23 23:48:00,
2013-09-23 19:53:00,52.6,44.2,30.07,South,186,0.0,0.0,73,0.00,,BKN039,0.00,0.00,VWS V14.01,2013-09-23 23:53:00,
2013-09-23 19:58:00,52.3,43.9,30.07,South,186,0.0,0.0,73,0.00,,BKN039,0.00,0.00,VWS V14.01,2013-09-23 23:58:00,
2013-09-23 20:03:00,51.9,43.9,30.07,South,186,0.0,0.0,74,0.00,,FEW037,0.00,0.00,VWS V14.01,2013-09-24 00:03:00,
2013-09-23 20:08:00,51.6,44.0,30.07,South,186,0.0,0.0,75,0.00,,FEW037,0.00,0.00,VWS V14.01,2013-09-24 00:08:00,
2013-09-23 20:13:00,51.3,43.7,30.07,South,186,0.0,0.0,75,0.00,,FEW037,0.00,0.00,VWS V14.01,2013-09-24 00:13:00,
2013-09-23 20:18:00,50.8,43.5,30.07,South,186,0.0,0.0,76,0.00,,FEW037,0.00,0.00,VWS V14.01,2013-09-24 00:18:00,
2013-09-23 20:23:00,50.5,43.6,30.07,South,186,0.0,0.0,77,0.00,,FEW037,0.00,0.00,VWS V14.01,2013-09-24 00:23:00,
2013-09-23 20:28:00,50.2,43.3,30.07,South,186,0.0,0.0,77,0.00,,FEW037,0.00,0.00,VWS V14.01,2013-09-24 00:28:00,
2013-09-23 20:33:00,49.9,43.3,30.07,South,186,0.0,0.0,78,0.00,,FEW037,0.00,0.00,VWS V14.01,2013-09-24 00:33:00,
2013-09-23 20:38:00,49.6,43.4,30.07,South,186,0.0,0.0,79,0.00,,FEW037,0.00,0.00,VWS V14.01,2013-09-24 00:38:00,
2013-09-23 20:43:00,49.4,43.2,30.07,South,186,0.0,0.0,79,0.00,,FEW037,0.00,0.00,VWS V14.01,2013-09-24 00:43:00,
2013-09-23 20:48:00,49.1,43.2,30.07,South,186,0.0,0.0,80,0.00,,FEW037,0.00,0.00,VWS V14.01,2013-09-24 00:48:00,
2013-09-23 20:53:00,48.8,42.9,30.07,South,186,0.0,0.0,80,0.00,,FEW037,0.00,0.00,VWS V14.01,2013-09-24 00:53:00,
2013-09-23 20:58:00,48.5,42.6,30.07,South,186,0.0,0.0,80,0.00,,FEW037,0.00,0.00,VWS V14.01,2013-09-24 00:58:00,
2013-09-23 21:03:00,48.2,42.3,30.07,South,186,0.0,0.0,80,0.00,,FEW037,0.00,0.00,VWS V14.01,2013-09-24 01:03:00,
2013-09-23 21:08:00,48.0,42.5,30.07,South,186,0.0,0.0,81,0.00,,FEW037,0.00,0.00,VWS V14.01,2013-09-24 01:08:00,
2013-09-23 21:13:00,47.7,42.2,30.07,South,186,0.0,0.0,81,0.00,,FEW037,0.00,0.00,VWS V14.01,2013-09-24 01:13:00,
2013-09-23 21:18:00,47.4,41.9,30.06,South,186,0.0,0.0,81,0.00,,FEW037,0.00,0.00,VWS V14.01,2013-09-24 01:18:00,
2013-09-23 21:23:00,47.1,41.6,30.06,South,186,0.0,0.0,81,0.00,,FEW037,0.00,0.00,VWS V14.01,2013-09-24 01:23:00,
2013-09-23 21:28:00,47.0,41.8,30.06,South,186,0.0,0.0,82,0.00,,FEW037,0.00,0.00,VWS V14.01,2013-09-24 01:28:00,
2013-09-23 21:33:00,46.8,41.6,30.06,South,186,0.0,0.0,82,0.00,,FEW037,0.00,0.00,VWS V14.01,2013-09-24 01:33:00,
2013-09-23 21:38:00,46.5,41.6,30.06,South,186,0.0,0.0,83,0.00,,FEW037,0.00,0.00,VWS V14.01,2013-09-24 01:38:00,
2013-09-23 21:43:00,46.4,41.8,30.06,South,186,0.0,0.0,84,0.00,,FEW037,0.00,0.00,VWS V14.01,2013-09-24 01:43:00,
2013-09-23 21:48:00,46.2,41.3,30.07,South,186,0.0,0.0,83,0.00,,FEW037,0.00,0.00,VWS V14.01,2013-09-24 01:48:00,
2013-09-23 21:53:00,46.0,41.1,30.07,South,186,0.0,0.0,83,0.00,,FEW037,0.00,0.00,VWS V14.01,2013-09-24 01:53:00,
2013-09-23 21:58:00,45.8,40.9,30.07,South,186,0.0,0.0,83,0.00,,FEW037,0.00,0.00,VWS V14.01,2013-09-24 01:58:00,
2013-09-23 22:03:00,45.5,40.7,30.06,South,186,0.0,0.0,83,0.00,,CLR,0.00,0.00,VWS V14.01,2013-09-24 02:03:00,
2013-09-23 22:08:00,45.4,40.9,30.06,South,186,0.0,0.0,84,0.00,,CLR,0.00,0.00,VWS V14.01,2013-09-24 02:08:00,
2013-09-23 22:13:00,45.2,40.7,30.06,South,186,0.0,0.0,84,0.00,,CLR,0.00,0.00,VWS V14.01,2013-09-24 02:13:00,
2013-09-23 22:18:00,45.1,40.6,30.07,South,186,0.0,0.0,84,0.00,,CLR,0.00,0.00,VWS V14.01,2013-09-24 02:18:00,
2013-09-23 22:23:00,44.9,40.4,30.07,South,186,0.0,0.0,84,0.00,,CLR,0.00,0.00,VWS V14.01,2013-09-24 02:23:00,
2013-09-23 22:28:00,44.8,40.3,30.07,South,186,0.0,0.0,84,0.00,,CLR,0.00,0.00,VWS V14.01,2013-09-24 02:28:00,
2013-09-23 22:33:00,44.8,40.6,30.06,South,186,0.0,0.0,85,0.00,,CLR,0.00,0.00,VWS V14.01,2013-09-24 02:33:00,
2013-09-23 22:38:00,44.9,41.0,30.06,South,186,0.0,0.0,86,0.00,,CLR,0.00,0.00,VWS V14.01,2013-09-24 02:38:00,
2013-09-23 22:43:00,44.8,41.2,30.06,South,186,0.0,0.0,87,0.00,,CLR,0.00,0.00,VWS V14.01,2013-09-24 02:43:00,
2013-09-23 22:48:00,44.8,41.2,30.07,South,186,0.0,0.0,87,0.00,,CLR,0.00,0.00,VWS V14.01,2013-09-24 02:48:00,
2013-09-23 22:53:00,44.6,41.0,30.07,South,186,0.0,0.0,87,0.00,,CLR,0.00,0.00,VWS V14.01,2013-09-24 02:53:00,
2013-09-23 22:58:00,44.5,40.9,30.07,South,186,0.0,0.0,87,0.00,,CLR,0.00,0.00,VWS V14.01,2013-09-24 02:58:00,
2013-09-23 23:03:00,44.5,40.9,30.07,South,186,0.0,0.0,87,0.00,,CLR,0.00,0.00,VWS V14.01,2013-09-24 03:03:00,
2013-09-23 23:08:00,44.3,40.7,30.07,South,186,0.0,0.0,87,0.00,,CLR,0.00,0.00,VWS V14.01,2013-09-24 03:08:00,
2013-09-23 23:13:00,44.2,40.9,30.07,South,186,0.0,0.0,88,0.00,,CLR,0.00,0.00,VWS V14.01,2013-09-24 03:13:00,
2013-09-23 23:18:00,44.2,40.9,30.07,South,186,0.0,0.0,88,0.00,,CLR,0.00,0.00,VWS V14.01,2013-09-24 03:18:00,
2013-09-23 23:23:00,44.1,40.8,30.07,South,186,0.0,0.0,88,0.00,,CLR,0.00,0.00,VWS V14.01,2013-09-24 03:23:00,
2013-09-23 23:29:00,44.1,40.8,30.07,South,186,0.0,0.0,88,0.00,,CLR,0.00,0.00,VWS V14.01,2013-09-24 03:29:00,
2013-09-23 23:34:00,44.1,40.8,30.07,South,186,0.0,0.0,88,0.00,,CLR,0.00,0.00,VWS V14.01,2013-09-24 03:34:00,
2013-09-23 23:39:00,43.9,40.6,30.07,South,186,0.0,0.0,88,0.00,,CLR,0.00,0.00,VWS V14.01,2013-09-24 03:39:00,
2013-09-23 23:44:00,43.9,40.9,30.07,South,186,0.0,0.0,89,0.00,,CLR,0.00,0.00,VWS V14.01,2013-09-24 03:44:00,
2013-09-23 23:49:00,43.8,40.8,30.07,South,186,0.0,0.0,89,0.00,,CLR,0.00,0.00,VWS V14.01,2013-09-24 03:49:00,
2013-09-23 23:54:00,43.6,40.6,30.07,South,186,0.0,0.0,89,0.00,,CLR,0.00,0.00,VWS V14.01,2013-09-24 03:54:00,
2013-09-23 23:59:00,43.6,40.6,30.07,South,186,0.0,0.0,89,0.00,,CLR,0.00,0.00,VWS V14.01,2013-09-24 03:59:00,